FW7023 Weather Reports


Display with metric or nautical units.
time (UTC)temp
F
wind
direction
speed
MPH
gust
MPH
rain 1hr
in
rain 24hr
in
rain mn
in
humidity
%
barometer
mb
20260901225512 98 185 2.0 2.0 0.00 0.00 0.00 34 1012.6
20260901225006 99 200 1.0 2.0 0.00 0.00 0.00 33 1012.4
20260901224502 99 172 0.0 1.0 0.00 0.00 0.00 33 1012.5
20260901223958 99 330 2.0 3.0 0.00 0.00 0.00 32 1012.3
20260901223454 100 212 1.0 1.0 0.00 0.00 0.00 33 1012.6
20260901222949 100 176 2.0 3.0 0.00 0.00 0.00 32 1012.7
20260901222445 100 163 0.0 1.0 0.00 0.00 0.00 32 1012.3
20260901221941 100 167 2.0 3.0 0.00 0.00 0.00 32 1012.7
20260901221437 100 211 3.0 5.0 0.00 0.00 0.00 32 1012.4
20260901220937 101 202 5.0 6.0 0.00 0.00 0.00 32 1012.6
20260901220436 100 187 2.0 3.0 0.00 0.00 0.00 31 1012.4
20260901215935 101 213 5.0 6.0 0.00 0.00 0.00 31 1012.5
20260901215433 102 212 3.0 5.0 0.00 0.00 0.00 31 1012.6
20260901214933 101 161 1.0 2.0 0.00 0.00 0.00 31 1012.6
20260901214432 101 181 1.0 1.0 0.00 0.00 0.00 31 1012.7
20260901213931 102 202 6.0 8.0 0.00 0.00 0.00 30 1012.5
20260901213426 101 200 3.0 3.0 0.00 0.00 0.00 31 1012.7
20260901212925 101 192 1.0 1.0 0.00 0.00 0.00 31 1012.8
20260901212421 102 210 5.0 6.0 0.00 0.00 0.00 30 1012.6
20260901211918 102 162 3.0 3.0 0.00 0.00 0.00 30 1012.6
20260901211413 101 209 1.0 2.0 0.00 0.00 0.00 31 1012.7
20260901210909 102 233 2.0 3.0 0.00 0.00 0.00 31 1012.9
20260901210404 102 139 0.0 1.0 0.00 0.00 0.00 31 1012.8
20260901205900 102 187 4.0 6.0 0.00 0.00 0.00 30 1012.9
20260901205355 102 172 1.0 1.0 0.00 0.00 0.00 31 1013.0
20260901204850 102 353 1.0 2.0 0.00 0.00 0.00 31 1013.0
20260901204347 102 192 3.0 5.0 0.00 0.00 0.00 31 1012.9
20260901203846 101 167 1.0 1.0 0.00 0.00 0.00 31 1013.1
20260901203340 100 200 2.0 2.0 0.00 0.00 0.00 31 1013.3
20260901202835 101 188 3.0 3.0 0.00 0.00 0.00 32 1013.4
20260901202330 102 220 5.0 5.0 0.00 0.00 0.00 31 1013.4
20260901201827 102 34 3.0 5.0 0.00 0.00 0.00 30 1013.4
20260901201326 100 218 2.0 2.0 0.00 0.00 0.00 31 1013.5
20260901200820 100 210 1.0 2.0 0.00 0.00 0.00 32 1013.5
20260901200316 101 196 3.0 5.0 0.00 0.00 0.00 31 1013.5
20260901195814 102 221 2.0 2.0 0.00 0.00 0.00 30 1013.7
20260901195307 101 203 2.0 3.0 0.00 0.00 0.00 30 1013.6
20260901194803 100 128 1.0 2.0 0.00 0.00 0.00 32 1013.6
20260901194257 101 203 6.0 9.0 0.00 0.00 0.00 30 1013.6
20260901193754 102 206 5.0 6.0 0.00 0.00 0.00 30 1014.0
20260901193252 101 170 3.0 7.0 0.00 0.00 0.00 30 1013.7
20260901192747 100 195 3.0 7.0 0.00 0.00 0.00 31 1013.7
20260901192243 101 198 2.0 3.0 0.00 0.00 0.00 32 1014.0
20260901191739 103 259 1.0 2.0 0.00 0.00 0.00 31 1013.7
20260901191234 102 181 1.0 2.0 0.00 0.00 0.00 32 1014.0
20260901190729 101 173 0.0 1.0 0.00 0.00 0.00 31 1014.1
20260901190225 101 170 1.0 2.0 0.00 0.00 0.00 32 1013.9
20260901185722 101 108 2.0 2.0 0.00 0.00 0.00 31 1014.1
20260901185221 102 197 4.0 6.0 0.00 0.00 0.00 32 1014.2
20260901184717 102 138 1.0 1.0 0.00 0.00 0.00 32 1014.3
20260901184212 101 187 1.0 1.0 0.00 0.00 0.00 33 1014.4
20260901183708 101 156 0.0 0.0 0.00 0.00 0.00 33 1014.4
20260901183207 101 359 1.0 2.0 0.00 0.00 0.00 33 1014.3
20260901182703 102 256 0.0 1.0 0.00 0.00 0.00 32 1014.4
20260901182157 101 308 1.0 2.0 0.00 0.00 0.00 33 1014.5
20260901181652 102 134 3.0 3.0 0.00 0.00 0.00 34 1014.6
20260901181151 101 202 1.0 1.0 0.00 0.00 0.00 33 1014.6
20260901180646 100 276 1.0 2.0 0.00 0.00 0.00 34 1015.1
20260901180145 100 209 3.0 5.0 0.00 0.00 0.00 33 1014.9
20260901175644 100 179 2.0 2.0 0.00 0.00 0.00 34 1015.1
20260901175139 100 179 2.0 3.0 0.00 0.00 0.00 35 1015.0
20260901174634 99 164 1.0 1.0 0.00 0.00 0.00 36 1015.1
20260901174131 99 203 2.0 2.0 0.00 0.00 0.00 35 1015.2
20260901173625 98 183 2.0 2.0 0.00 0.00 0.00 37 1015.2
20260901173120 99 196 2.0 2.0 0.00 0.00 0.00 37 1015.1
20260901172617 99 223 1.0 1.0 0.00 0.00 0.00 36 1015.3
20260901172114 99 195 1.0 1.0 0.00 0.00 0.00 37 1015.2
20260901171614 98 237 0.0 1.0 0.00 0.00 0.00 38 1015.4
20260901171108 97 216 1.0 2.0 0.00 0.00 0.00 39 1015.2
20260901170607 98 192 2.0 2.0 0.00 0.00 0.00 37 1015.5
20260901165601 97 173 1.0 1.0 0.00 0.00 0.00 39 1015.6
20260901165057 96 134 1.0 1.0 0.00 0.00 0.00 40 1015.7
20260901164552 95 210 5.0 6.0 0.00 0.00 0.00 40 1015.7
20260901164047 95 233 5.0 7.0 0.00 0.00 0.00 41 1015.8
20260901163543 96 166 3.0 5.0 0.00 0.00 0.00 41 1015.5
20260901163042 95 203 3.0 3.0 0.00 0.00 0.00 41 1015.8
20260901162536 95 182 1.0 2.0 0.00 0.00 0.00 43 1015.7
20260901162036 95 181 4.0 5.0 0.00 0.00 0.00 43 1015.8
20260901161530 95 165 0.0 0.0 0.00 0.00 0.00 44 1015.9
20260901161029 93 189 1.0 2.0 0.00 0.00 0.00 45 1015.9
20260901160526 94 200 4.0 6.0 0.00 0.00 0.00 43 1015.7
20260901160021 93 166 0.0 0.0 0.00 0.00 0.00 46 1015.9
20260901155519 93 86 0.0 1.0 0.00 0.00 0.00 48 1015.8
20260901155016 94 215 1.0 2.0 0.00 0.00 0.00 45 1016.0
20260901154515 93 169 1.0 1.0 0.00 0.00 0.00 45 1015.7
20260901154010 92 171 2.0 2.0 0.00 0.00 0.00 47 1016.0
20260901153505 91 157 0.0 0.0 0.00 0.00 0.00 48 1015.8
20260901153004 91 170 4.0 5.0 0.00 0.00 0.00 48 1016.1
20260901152459 91 169 2.0 3.0 0.00 0.00 0.00 47 1015.8
20260901151958 90 181 2.0 3.0 0.00 0.00 0.00 49 1015.8
20260901151453 90 216 6.0 7.0 0.00 0.00 0.00 48 1016.0
20260901150953 89 204 2.0 2.0 0.00 0.00 0.00 50 1016.0
20260901150451 89 163 0.0 0.0 0.00 0.00 0.00 52 1016.1
20260901145948 89 153 0.0 0.0 0.00 0.00 0.00 50 1016.2
20260901145443 88 211 1.0 1.0 0.00 0.00 0.00 51 1016.1
20260901144937 88 155 2.0 2.0 0.00 0.00 0.00 52 1016.1
20260901144433 87 182 3.0 3.0 0.00 0.00 0.00 54 1016.0
20260901143929 87 183 3.0 5.0 0.00 0.00 0.00 54 1016.0
20260901143425 86 192 2.0 3.0 0.00 0.00 0.00 54 1016.3
20260901142921 86 165 0.0 0.0 0.00 0.00 0.00 55 1016.2
20260901142420 86 167 2.0 2.0 0.00 0.00 0.00 55 1016.2
20260901141915 85 166 1.0 2.0 0.00 0.00 0.00 56 1016.2
20260901141410 85 136 1.0 1.0 0.00 0.00 0.00 56 1016.4
20260901140910 84 164 0.0 0.0 0.00 0.00 0.00 58 1016.3
20260901140408 83 155 2.0 3.0 0.00 0.00 0.00 59 1016.5
20260901135903 82 185 1.0 1.0 0.00 0.00 0.00 60 1016.2
20260901135358 81 203 0.0 1.0 0.00 0.00 0.00 62 1016.3
20260901134853 80 165 0.0 0.0 0.00 0.00 0.00 64 1016.5
20260901134348 80 142 0.0 0.0 0.00 0.00 0.00 64 1016.2
20260901133843 80 169 0.0 0.0 0.00 0.00 0.00 65 1016.2
20260901133342 79 157 0.0 0.0 0.00 0.00 0.00 65 1016.1
20260901132840 79 172 0.0 1.0 0.00 0.00 0.00 65 1016.2
20260901132336 78 170 0.0 0.0 0.00 0.00 0.00 66 1016.0
20260901131835 78 158 1.0 1.0 0.00 0.00 0.00 67 1016.0
20260901131334 78 164 0.0 0.0 0.00 0.00 0.00 67 1015.9
20260901130824 77 166 1.0 1.0 0.00 0.00 0.00 69 1016.2
20260901130325 76 154 0.0 0.0 0.00 0.00 0.00 71 1016.2
20260901125823 75 162 0.0 0.0 0.00 0.00 0.00 73 1016.2
20260901125322 74 157 0.0 0.0 0.00 0.00 0.00 77 1015.9
20260901124811 73 166 0.0 0.0 0.00 0.00 0.00 79 1016.1
20260901124306 73 159 0.0 0.0 0.00 0.00 0.00 80 1015.8
20260901123806 73 157 0.0 0.0 0.00 0.00 0.00 80 1015.9
20260901123301 73 153 0.0 0.0 0.00 0.00 0.00 81 1015.8
20260901122759 73 159 0.0 0.0 0.00 0.00 0.00 80 1015.8
20260901122254 73 163 0.0 0.0 0.00 0.00 0.00 78 1015.8
20260901121754 74 160 0.0 0.0 0.00 0.00 0.00 76 1015.8
20260901121249 74 165 0.0 0.0 0.00 0.00 0.00 74 1015.8
20260901120749 74 170 0.0 0.0 0.00 0.00 0.00 74 1015.7
20260901120244 75 159 0.0 0.0 0.00 0.00 0.00 73 1015.6
20260901115739 74 162 0.0 0.0 0.00 0.00 0.00 72 1015.3
20260901115235 74 164 0.0 0.0 0.00 0.00 0.00 72 1015.3
20260901114726 73 168 0.0 0.0 0.00 0.00 0.00 76 1015.4
20260901114226 72 178 1.0 1.0 0.00 0.00 0.00 78 1015.4
20260901113719 71 160 0.0 0.0 0.00 0.00 0.00 80 1015.3
20260901113215 71 158 0.0 0.0 0.00 0.00 0.00 83 1015.4
20260901112714 71 152 0.0 0.0 0.00 0.00 0.00 83 1015.2
20260901112209 71 151 0.0 1.0 0.00 0.00 0.00 83 1015.2
20260901111708 72 152 0.0 0.0 0.00 0.00 0.00 82 1015.3
20260901111202 72 166 0.0 0.0 0.00 0.00 0.00 80 1015.1
20260901110656 72 162 0.0 0.0 0.00 0.00 0.00 80 1015.1
20260901110152 72 159 0.0 0.0 0.00 0.00 0.00 81 1015.0
20260901105648 72 175 0.0 0.0 0.00 0.00 0.00 81 1014.9
20260901105147 71 155 0.0 0.0 0.00 0.00 0.00 81 1014.9
20260901104643 70 164 0.0 0.0 0.00 0.00 0.00 84 1014.6
20260901104139 70 164 0.0 0.0 0.00 0.00 0.00 85 1014.6
20260901103638 69 159 0.0 0.0 0.00 0.00 0.00 86 1014.8
20260901103134 69 152 0.0 0.0 0.00 0.00 0.00 86 1014.8
20260901102633 69 165 0.0 0.0 0.00 0.00 0.00 86 1014.8
20260901102128 69 163 0.0 0.0 0.00 0.00 0.00 86 1014.9
20260901101625 69 159 0.0 0.0 0.00 0.00 0.00 87 1014.4
20260901101123 69 152 0.0 0.0 0.00 0.00 0.00 87 1014.9
20260901100623 69 157 0.0 0.0 0.00 0.00 0.00 87 1014.8
20260901100118 69 143 0.0 0.0 0.00 0.00 0.00 87 1014.9
20260901095616 69 160 0.0 0.0 0.00 0.00 0.00 87 1014.8
20260901095114 69 153 0.0 0.0 0.00 0.00 0.00 86 1014.5
20260901094609 70 158 0.0 0.0 0.00 0.00 0.00 87 1014.2
20260901094108 69 156 0.0 0.0 0.00 0.00 0.00 88 1014.6
20260901093603 69 152 0.0 0.0 0.00 0.00 0.00 88 1014.3
20260901093058 69 155 0.0 0.0 0.00 0.00 0.00 88 1014.3
20260901092554 70 156 0.0 0.0 0.00 0.00 0.00 87 1014.4
20260901092050 70 156 0.0 0.0 0.00 0.00 0.00 87 1014.2
20260901091546 70 156 0.0 0.0 0.00 0.00 0.00 87 1014.0
20260901091045 70 160 0.0 0.0 0.00 0.00 0.00 87 1014.1
20260901090545 70 161 0.0 0.0 0.00 0.00 0.00 88 1014.1
20260901090041 70 157 0.0 0.0 0.00 0.00 0.00 87 1014.2
20260901085536 70 157 0.0 0.0 0.00 0.00 0.00 87 1014.1
20260901085032 71 157 0.0 0.0 0.00 0.00 0.00 86 1014.0
20260901084528 71 160 0.0 0.0 0.00 0.00 0.00 85 1014.2
20260901084024 71 158 0.0 0.0 0.00 0.00 0.00 85 1014.1
20260901083518 71 151 0.0 1.0 0.00 0.00 0.00 85 1013.9
20260901083016 71 170 0.0 0.0 0.00 0.00 0.00 84 1013.9
20260901082512 71 169 0.0 1.0 0.00 0.00 0.00 82 1013.9
20260901082007 71 167 1.0 1.0 0.00 0.00 0.00 82 1013.7
20260901081502 71 163 1.0 1.0 0.00 0.00 0.00 83 1013.6
20260901080957 70 150 0.0 0.0 0.00 0.00 0.00 83 1014.1
20260901080456 71 156 0.0 0.0 0.00 0.00 0.00 84 1014.1
20260901075956 71 158 0.0 0.0 0.00 0.00 0.00 86 1014.0
20260901075452 71 158 0.0 0.0 0.00 0.00 0.00 85 1014.0
20260901074950 71 157 0.0 0.0 0.00 0.00 0.00 84 1014.0
20260901074445 72 159 0.0 0.0 0.00 0.00 0.00 83 1014.1
20260901073940 72 159 0.0 0.0 0.00 0.00 0.00 84 1014.0
20260901073437 72 159 0.0 0.0 0.00 0.00 0.00 82 1014.0
20260901072937 72 159 0.0 0.0 0.00 0.00 0.00 81 1014.2
20260901072432 72 159 0.0 0.0 0.00 0.00 0.00 79 1014.1
20260901071927 72 161 0.0 0.0 0.00 0.00 0.00 79 1014.1
20260901071426 72 161 0.0 0.0 0.00 0.00 0.00 78 1014.0
20260901070926 72 160 0.0 0.0 0.00 0.00 0.00 79 1014.2
20260901070421 73 162 0.0 0.0 0.00 0.00 0.00 78 1014.1
20260901065920 73 164 0.0 0.0 0.00 0.00 0.00 77 1014.3
20260901065416 73 161 0.0 0.0 0.00 0.00 0.00 77 1014.2
20260901064911 73 161 0.0 0.0 0.00 0.00 0.00 77 1014.1
20260901064407 73 162 0.0 0.0 0.00 0.00 0.00 77 1014.0
20260901063904 73 159 0.0 0.0 0.00 0.00 0.00 76 1014.0
20260901063400 73 162 0.0 0.0 0.00 0.00 0.00 76 1014.2
20260901062856 74 167 0.0 0.0 0.00 0.00 0.00 76 1014.3
20260901062351 74 164 0.0 0.0 0.00 0.00 0.00 76 1014.2
20260901061841 74 158 0.0 0.0 0.00 0.00 0.00 76 1014.2
20260901061336 75 156 0.0 0.0 0.00 0.00 0.00 76 1014.5
20260901060832 75 160 0.0 0.0 0.00 0.00 0.00 76 1014.4
20260901060328 75 163 0.0 0.0 0.00 0.00 0.00 76 1014.3
20260901055827 75 162 0.0 0.0 0.00 0.00 0.00 75 1014.3
20260901055323 75 166 0.0 0.0 0.00 0.00 0.00 74 1014.3
20260901054820 75 162 0.0 0.0 0.00 0.00 0.00 74 1014.0
20260901054317 75 165 0.0 0.0 0.00 0.00 0.00 74 1014.2
20260901053813 76 166 0.0 0.0 0.00 0.00 0.00 74 1014.2
20260901053308 76 164 0.0 0.0 0.00 0.00 0.00 74 1014.2
20260901052803 76 166 0.0 0.0 0.00 0.00 0.00 73 1014.3
20260901052258 76 164 0.0 0.0 0.00 0.00 0.00 74 1014.1
20260901051757 76 164 0.0 0.0 0.00 0.00 0.00 74 1014.3
20260901051252 77 161 0.0 0.0 0.00 0.00 0.00 75 1014.1
20260901050742 77 161 0.0 0.0 0.00 0.00 0.00 74 1014.0
20260901050237 78 161 0.0 0.0 0.00 0.00 0.00 73 1013.9
20260901045732 78 163 0.0 0.0 0.00 0.00 0.00 72 1013.9
20260901045226 78 158 0.0 0.0 0.00 0.00 0.00 72 1013.7
20260901044722 78 159 0.0 0.0 0.00 0.00 0.00 72 1014.0
20260901044219 79 158 0.0 0.0 0.00 0.00 0.00 71 1013.8
20260901043714 80 162 0.0 0.0 0.00 0.00 0.00 69 1013.8
20260901043209 80 168 0.0 0.0 0.00 0.00 0.00 68 1013.7
20260901042708 81 159 0.0 0.0 0.00 0.00 0.00 66 1013.9
20260901042203 82 157 0.0 0.0 0.00 0.00 0.00 63 1013.7
20260901041700 83 172 0.0 0.0 0.00 0.00 0.00 61 1013.7
20260901041159 84 165 1.0 1.0 0.00 0.00 0.00 59 1013.6
20260901040654 84 169 0.0 0.0 0.00 0.00 0.00 56 1013.9
20260901040153 85 178 0.0 0.0 0.00 0.00 0.00 50 1013.6
20260901035652 85 168 0.0 0.0 0.00 0.00 0.00 51 1013.7
20260901035150 86 167 0.0 0.0 0.00 0.00 0.00 51 1013.8
20260901034650 86 186 0.0 0.0 0.00 0.00 0.00 51 1013.8
20260901034144 86 187 1.0 1.0 0.00 0.00 0.00 48 1013.6
20260901033644 86 138 0.0 0.0 0.00 0.00 0.00 49 1013.8
20260901033143 86 177 1.0 1.0 0.00 0.00 0.00 49 1013.6
20260901032643 86 184 1.0 1.0 0.00 0.00 0.00 49 1013.6
20260901032137 86 167 0.0 1.0 0.00 0.00 0.00 50 1013.4
20260901031632 85 166 1.0 2.0 0.00 0.00 0.00 49 1013.5
20260901031129 85 166 0.0 0.0 0.00 0.00 0.00 52 1013.6
20260901030628 84 154 0.0 0.0 0.00 0.00 0.00 53 1013.5
20260901030124 85 164 0.0 0.0 0.00 0.00 0.00 55 1013.5
20260901025618 84 164 0.0 0.0 0.00 0.00 0.00 52 1013.4
20260901025112 82 190 1.0 2.0 0.00 0.00 0.00 58 1013.5
20260901024607 82 183 1.0 1.0 0.00 0.00 0.00 64 1013.4
20260901024106 82 158 0.0 0.0 0.00 0.00 0.00 67 1013.3
20260901023605 82 180 0.0 1.0 0.00 0.00 0.00 71 1013.2
20260901023100 82 157 0.0 0.0 0.00 0.00 0.00 70 1013.3
20260901022555 82 159 0.0 0.0 0.00 0.00 0.00 68 1013.1
20260901022050 82 165 0.0 0.0 0.00 0.00 0.00 67 1013.2
20260901021546 82 161 0.0 0.0 0.00 0.00 0.00 65 1013.1
20260901021041 82 169 0.0 0.0 0.00 0.00 0.00 63 1013.0
20260901020536 82 169 0.0 0.0 0.00 0.00 0.00 63 1013.0
20260901020032 83 166 0.0 0.0 0.00 0.00 0.00 63 1013.1
20260901015527 83 170 0.0 0.0 0.00 0.00 0.00 62 1012.9
20260901015026 83 168 0.0 0.0 0.00 0.00 0.00 62 1013.0
20260901014522 83 169 0.0 0.0 0.00 0.00 0.00 61 1012.9
20260901014019 84 169 0.0 0.0 0.00 0.00 0.00 61 1013.0
20260901013514 84 171 0.0 0.0 0.00 0.00 0.00 60 1012.8
20260901013009 84 166 0.0 0.0 0.00 0.00 0.00 59 1013.1
20260901012509 85 164 0.0 1.0 0.00 0.00 0.00 58 1012.7
20260901012004 85 170 0.0 0.0 0.00 0.00 0.00 59 1012.7
20260901011500 85 169 0.0 1.0 0.00 0.00 0.00 58 1012.5
20260901010958 86 172 0.0 0.0 0.00 0.00 0.00 59 1012.6
20260901010448 86 168 0.0 0.0 0.00 0.00 0.00 57 1012.6
20260901005947 86 168 0.0 0.0 0.00 0.00 0.00 57 1012.4
20260901005442 87 168 0.0 0.0 0.00 0.00 0.00 57 1012.4
20260901004937 87 171 0.0 1.0 0.00 0.00 0.00 56 1012.4
20260901004436 87 174 0.0 1.0 0.00 0.00 0.00 56 1012.4
20260901003931 88 170 0.0 0.0 0.00 0.00 0.00 55 1012.4
20260901003426 88 177 1.0 2.0 0.00 0.00 0.00 55 1012.4
20260901002924 89 180 1.0 1.0 0.00 0.00 0.00 54 1012.3
20260901002424 89 172 0.0 1.0 0.00 0.00 0.00 54 1012.5
20260901001919 89 173 1.0 1.0 0.00 0.00 0.00 54 1012.2
20260901001414 90 169 0.0 1.0 0.00 0.00 0.00 53 1012.4
20260901000909 90 171 0.0 0.0 0.00 0.00 0.00 53 1012.4
20260901000405 91 172 0.0 0.0 0.00 0.00 0.00 51 1012.4
20260831235903 92 175 0.0 0.0 0.00 0.00 0.00 50 1012.2
20260831235400 93 169 0.0 0.0 0.00 0.00 0.00 47 1012.3
20260831234859 93 170 0.0 0.0 0.00 0.00 0.00 48 1012.3
20260831234354 93 186 1.0 1.0 0.00 0.00 0.00 49 1012.5
20260831233850 94 177 1.0 1.0 0.00 0.00 0.00 48 1012.1
20260831233345 95 194 2.0 2.0 0.00 0.00 0.00 45 1012.3
20260831232840 95 168 0.0 0.0 0.00 0.00 0.00 41 1012.2
20260831232336 96 179 1.0 1.0 0.00 0.00 0.00 40 1012.2
20260831231832 98 181 1.0 1.0 0.00 0.00 0.00 41 1012.2
20260831231328 98 191 1.0 2.0 0.00 0.00 0.00 39 1012.1
20260831230823 99 170 0.0 0.0 0.00 0.00 0.00 36 1012.1
20260831230318 99 191 0.0 1.0 0.00 0.00 0.00 36 1012.3
20260831225817 100 180 2.0 3.0 0.00 0.00 0.00 35 1012.2